Regional Weather Roundup
Issued by NWS Wakefield, VA

Home | Current Version | Previous Version | Graphics & Text | Print | Product List | Glossary On
Versions: 1 2 3 4 5 6 7 8 9 10 11 12 13 14 15 16 17 18 19 20 21 22 23 24 25 26 27
000
ASUS41 KAKQ 192315
RWRAKQ

REGIONAL WEATHER ROUNDUP
NATIONAL WEATHER SERVICE WAKEFIELD VA
600 PM EST SUN FEB 19 2017

Note: "fair" indicates few or no clouds below 12,000 feet with no
significant weather and/or obstructions to visibility. * = Denotes
station may not report precipitation (e.g., rain,snow,etc.),
thunder or fog.

VAZ042-051-052>054-056-200000-
NORTHERN VIRGINIA

CITY           SKY/WX    TMP DP  RH WIND       PRES   REMARKS
WASH NATIONAL  PTCLDY    67  38  34 NW16      29.95R
DULLES         CLEAR     61  37  41 NW10      29.96R
FORT BELVOIR   CLEAR     65  39  37 NW8       29.95R
QUANTICO       CLEAR     68  38  33 N9        29.96R
FREDERICKSBRG* CLEAR     69  41  36 NW8       29.94R
STAFFORD*      CLEAR     63  37  39 NW8       29.99R
WARRENTON      CLEAR     64  32  30 NW6       29.96R
CULPEPER*      CLEAR     67  37  32 NW6       29.98R
MANASSAS*      CLEAR     63  38  39 NW10      29.96R
LEESBURG*      CLEAR     61  45  55 W14       29.98R
WINCHESTER     CLEAR     55  37  50 NW9       30.00R
FRONT ROYAL*   CLEAR     61  36  39 W9G17     29.99R
LURAY*         CLEAR     61  41  48 SW7       30.00R
$$

VAZ048-049-060>072-079>083-200000-
CENTRAL AND SOUTH CENTRAL VIRGINIA

CITY           SKY/WX    TMP DP  RH WIND       PRES   REMARKS
RICHMOND       PTCLDY    68  46  45 W5        29.94R
CHESTERFIELD*  FAIR      68  37  32 W3        29.97R
PETERSBURG*    CLEAR     61  45  56 W3        29.96R
HANOVER        CLEAR     67  44  43 CALM      29.96R
TAPPAHANNOCK*  CLEAR     64  34  33 CALM      29.95R
QUINTON*       FAIR      66  47  50 CALM      29.93S
CHARLOTTSVILLE CLEAR     68  38  33 NW8       29.98R
GORDONSVILLE*  CLEAR     68  35  29 NW7       29.96R
ORANGE*        CLEAR     64  34  32 W7        29.98R
LOUISA*        CLEAR     72  39  30 NW5       29.95R
BUMPASS*       FAIR      68  39  35 W6        29.95R
FARMVILLE*     CLEAR     66  46  48 CALM      29.96R
CREWE*         FAIR      67  45  43 W3        29.96R
FORT PICKETT*  FAIR      66  34  30 W5        29.97R
CHASE CITY*    FAIR      62  43  48 CALM      29.99R
CLARKSVILLE*   FAIR      64  43  45 CALM      29.98R
SOUTH HILL*    CLEAR     66  46  47 W3        30.03R
LAWRENCEVILLE* FAIR      65  44  45 CALM      29.97R
EMPORIA*       CLEAR     59  46  63 CALM      29.97S
$$

VAZ088>098-200000-
SOUTHEAST VIRGINIA

CITY           SKY/WX    TMP DP  RH WIND       PRES   REMARKS
NORFOLK        CLEAR     60  44  55 CALM      29.94R
VIRGINIA BEACH CLEAR     60  40  47 NW3       29.94R
NORFOLK NAVAL  CLEAR     59  44  57 CALM      29.96R
WEST POINT*    CLEAR     62  46  56 CALM      29.95S
SALUDA*        FAIR      58  49  72 CALM      29.94R
NEWPORT NEWS   CLEAR     60  47  61 E3        29.95R
LANGLEY AFB    CLEAR     59  45  59 CALM      29.94R
FORT EUSTIS    CLEAR     65  48  53 CALM      29.92R
WILLIAMSBURG*  CLEAR     66  48  52 CALM      29.95R
HR EXEC AP*    FAIR      59  45  58 CALM      29.93R
FRANKLIN*      CLEAR     67  46  46 CALM      29.95R
US460-WAKEFLD  CLEAR     63  49  60 CALM      29.95R
$$

VAZ020-022-025-037-045-200000-
WEST CENTRAL AND SOUTHWEST VIRGINIA

CITY           SKY/WX    TMP DP  RH WIND       PRES   REMARKS
STAUNTON*      CLEAR     59  37  44 NW5       30.03S
WAYNESBORO*    CLEAR     61  35  37 N9G16     30.01R
HOT SPRINGS VA CLEAR     46  36  66 W18       30.08R
LYNCHBURG      CLEAR     62  41  46 VRB3      30.02R
DANVILLE       CLEAR     63  43  48 N8        30.01R
SOUTH BOSTON*  FAIR      66  41  41 CALM      29.99R
MARTINSVILLE   CLEAR     60  39  46 NW8       30.07R
ROANOKE        PTCLDY    57  41  55 NW15      30.10R
BLACKSBURG     PTCLDY    52  43  70 W3        30.14R
DUBLIN*        PTCLDY    53  42  68 NW7       30.12S
MARION*        CLEAR     55  43  65 W9G16     30.14R
HILLSVILLE*    CLEAR     52  41  66 N9        30.09R
RICHLANDS*     FAIR      55  42  60 NW3       30.12S
WISE*          CLEAR     55  39  54 CALM      30.15R
ABINGDON*      CLEAR     56  45  66 SW5       30.12S
$$

MDZ021>025-VAZ099-100-200000-
SOUTHERN MARYLAND AND THE DELMARVA PENINSULA

CITY           SKY/WX    TMP DP  RH WIND       PRES   REMARKS
PATUXENT RIVER CLEAR     61  43  51 NW6       29.93R
BAY BRIDGE APT CLEAR     57  41  54 NW3       29.92R
LEONARDTOWN    CLEAR     64  37  36 CALM      29.95R
DOVER          CLEAR     64  45  50 SW6       29.89R
GEORGETOWN     CLEAR     65  42  43 W3        29.92R
EASTON         CLEAR     63  41  45 SW3       29.96R
CAMBRIDGE      CLEAR     59  43  55 W3        29.93R
SALISBURY      CLEAR     64  43  46 W5        29.92R
OCEAN CITY     CLEAR     63  42  46 NW6       29.92R
WALLOPS ISLAND CLEAR     60  46  59 W3        29.94R
ACCOMACK*      CLEAR     59  45  58 NW5       29.94R
$$

NCZ012>017-030>032-200000-
NORTH CENTRAL AND EASTERN NORTH CAROLINA

CITY           SKY/WX    TMP DP  RH WIND       PRES   REMARKS
ROANOKE RAPIDS FAIR      66  45  45 W5        29.96R
RALEIGH        CLEAR     67  42  40 VRB5      30.00R
ELIZABETH CITY CLEAR     61  45  55 S6        29.95R
AHOSKIE*         N/A     66  46  47 CALM      29.96R
EDENTON*       CLEAR     69  47  45 CALM      29.95R
CURRITUCK*     CLEAR     62  46  55 CALM      29.95R
KILL DEVIL HLS NOT AVBL
MANTEO         CLEAR     58  45  61 N3        29.95S
CAPE HATTERAS  CLEAR     56  46  69 CALM      29.94S
TARBORO*       NOT AVBL
GOLDSBORO      CLEAR     69  42  38 NW5       29.95R
WASHINGTON     CLEAR     68  44  42 NW3       29.96R
GREENVILLE     CLEAR     68  45  42 CALM      29.98R
NEW BERN       CLEAR     67  44  43 W3        29.96R
WILMINGTON     CLEAR     68  46  45 NW12      29.97R
$$

VAZ048-200000-
ELSEWHERE

CITY           SKY/WX    TMP DP  RH WIND       PRES   REMARKS
HARRISBURG PA  PTCLDY    60  32  34 W5        29.91R
BALTIMORE      PTCLDY    64  40  41 W13       29.93R
ANNAPOLIS      CLEAR     65  39  38 W5        29.92R
ANDREWS AFB    CLEAR     64  38  39 NW14      29.94R
PHILADELPHIA   PTCLDY    66  33  29 W10       29.90R
HENDERSON NC   CLEAR     63  41  45 CALM      29.99R
GREENSBORO     CLEAR     65  41  41 N6        30.02R
ROCKY MOUNT    CLEAR     66  44  45 NW3       29.97R
$$

VAZ100-200000-
MARINE

STATION/POSITION TIME  TEMP    WIND        PRES    WAVE   SWELL
                       AIR SEA DIR/SP/G            HT/PER HT/PER
                 (UTC) (F)     (DEG/KT/KT) (MB)    (FT/S) (FT/S)
CAPE MAY NJ      2248   53 40  240/  5/  6 1012.2R
LEWES DE         2248   64 41  270/  6/  8 1012.6R
OCEAN-CITY-INLET 2248   64 43  320/  7/  8 1013.4R
WACHAPREAGUE VA  2248   61 51  310/  1/  4 1013.7R
THOMAS POINT MD  2300   66 41  290/ 11/ 12   N/A
GOOSES REEF MD   2300   58 45  290/  8/  8 1014.2
COVE POINT MD    2248   60      40/  3/  5 1014.2R
SOLOMONS ISLAND  2248   63 41  330/  3/  5   N/A
BISHOPS HEAD MD  2248   56 49  190/  3/  4 1013.8R
PINEY POINT MD   2236          340/  3/  3   N/A
POTOMAC MD       2300   54 44  320/  4/  6 1012.7
CAMBRIDGE MD     2248   56 40   CALM  /  2 1012.7R
LEWISETTA VA     2248   62 45  270/  2/  2 1013.2R
RAPPAHANNOCK LGT 2236           70/  4/  5 1014.2R
YORK RVR RNG VA  2248   54     200/  1/  1 1013.1R
YORKTOWN VA      2248   55 44   CALM  /  2 1013.5R
JAMESTOWN VA     2300   64 49  360/  2/  2   N/A     0
DOMINION TERM VA 2248   60      60/  4/  5 1013.9R
KIPTOPEKE VA     2236      46  350/  8/  8   N/A
CHES BAY BRIDGE  2248   59 46  360/  4/  4 1013.8R
CAPE HENRY VA    2248   59     290/  3/  3   N/A
WILLOUBY STN VA  2236   60     100/  5/  5 1014.8R
S CRANEY ISL VA  2248   62      50/  3/  3 1013.5R
CAPE HENRY BUOY  2242      48                N/A     1/ 5
OFFSHORE WE BUOY 2251      49                N/A     2/ 5
64NM E OF VA BCH 2250   53 51  320/  8/  8 1013.4R   2/ 8   2/ 8
DUCK PIER NC     2248   52 48   20/  4/  5 1013.4R
44100 DUCK FRF   2235      49                N/A     1/ 8
44056 DUCK FRF   2300      49                N/A     1/ 7
OREGON INLET NC  2236   59 51  340/  4/  5 1014.0R
HATTERAS NC      2248   60 56     CALM     1013.6F
DIAMOND SHLS NC  2250   61 67  350/  6/  8 1014.0R   2/ 7   2/ 7
CAPE LOOKOUT NC  2300   59      CALM  /  1 1014.1R
$$




USA.gov is the U.S. government's official web portal to all federal, state and local government web resources and services.